Location: Asheville, NC
(35.6000°N, 82.5500°W)
Time: 10:47:18

RS-15 - Pass Details

Date: 11 March 2018
Orbit: 1888 x 2157 km, 64.8° (Epoch: 20 March)

Event Time Altitude Azimuth Distance (km) Brightness Sun altitude
Exits shadow 03:47:54 26° 324° (NW) 3,474 9.2 -46.6°
Maximum altitude 03:47:56 26° 324° (NW) 3,474 9.2 -46.6°
Drops below altitude 10° 03:57:29 10° 18° (NNE) 4,556 10.4 -45.1°
Sets 04:01:51 0° 31° (NNE) 5,518 11.1 -44.3°
